Weather History for KCYS - March, 2013

Change the Weather History Date:

Sunday, March 24, 2013

  Actual Average Record
Temperature  
Mean Temperature 15 °F 38 °F  
Max Temperature 25 °F 49 °F 71 °F (1998)
Min Temperature 5 °F 26 °F -3 °F (1996)
Degree Days  
Heating Degree Days 50 27  
Month to date heating degree days 738 715  
Since 1 July heating degree days 5671 5734  
Cooling Degree Days 0 0  
Month to date cooling degree days 0 0  
Year to date cooling degree days 0 0  
Moisture  
Dew Point 7 °F    
Average Humidity 60    
Maximum Humidity 84    
Minimum Humidity 36    
Precipitation  
Precipitation 0.01 in 0.04 in 0.57 in (1919)
Month to date precipitation 0.47 0.77  
Year to date precipitation 1.35 1.57  
Snow  
Snow 0.10 in 0.40 in 5.30 in (1888)
Month to date snowfall 6.3 8.6  
Since 1 July snowfall 44.7 45.1  
Snow Depth T in    
Sea Level Pressure  
Sea Level Pressure 30.17 in    
Wind  
Wind Speed 12 mph (NNW)    
Max Wind Speed 31 mph    
Max Gust Speed 44 mph    
Visibility 7 miles    
Events Snow    
T = Trace of Precipitation, MM = Missing Value Source: NWS Daily Summary

Daily Weather History Graph

Daily Weather History Graph

Search for Another Location

Airport or City:

Trip Planner

Search our weather history database for the weather conditions in past years. The results will help you decide how hot, cold, wet, or windy it might be!

Date:

Astronomy

Mar. 24, 2013 Rise Set
Actual Time 6:55 AM MDT 7:16 PM MDT
Civil Twilight 6:27 AM MDT 7:43 PM MDT
Nautical Twilight 5:55 AM MDT 8:16 PM MDT
Astronomical Twilight 5:22 AM MDT 8:49 PM MDT
Moon 4:45 PM MDT (3/24) 5:08 AM MDT (3/24)
Length of Visible Light 13h 15m
Length of Day
12h 20m
Waxing Gibbous, 92% of the Moon is Illuminated
Mar 24
Waxing Gibbous
Mar 27
Full
Apr 2
Last Quarter
Apr 10
New
Apr 18
First Quarter

Hourly Weather History & Observations

Time (MDT) Temp. Windchill Dew Point Humidity Pressure Visibility Wind Dir Wind Speed Gust Speed Precip Events Conditions
12:53 AM 7.0 °F -5.7 °F 1.0 °F 77% 30.34 in 10.0 mi West 8.1 mph - N/A   Clear
1:53 AM 7.0 °F -4.5 °F -0.0 °F 73% 30.32 in 10.0 mi West 6.9 mph - N/A   Mostly Cloudy
2:53 AM 7.0 °F -4.5 °F -0.0 °F 73% 30.29 in 10.0 mi WNW 6.9 mph - N/A   Mostly Cloudy
3:53 AM 6.1 °F -4.3 °F -0.0 °F 76% 30.26 in 10.0 mi WNW 5.8 mph - N/A   Partly Cloudy
4:53 AM 6.1 °F -5.6 °F -0.0 °F 76% 30.25 in 10.0 mi WNW 6.9 mph - N/A   Scattered Clouds
5:53 AM 5.0 °F -6.9 °F -0.0 °F 80% 30.25 in 10.0 mi West 6.9 mph - N/A   Clear
6:53 AM 7.0 °F -3.3 °F -0.0 °F 73% 30.25 in 10.0 mi WNW 5.8 mph - N/A   Mostly Cloudy
7:53 AM 9.0 °F -2.2 °F 3.0 °F 77% 30.25 in 1.2 mi NW 6.9 mph - 0.00 in Snow Light Snow
8:11 AM 10.4 °F -0.4 °F 6.8 °F 85% 30.00 in 3.0 mi WNW 6.9 mph - 0.00 in Snow Light Snow
8:34 AM 14.0 °F 2.9 °F 8.6 °F 79% 30.01 in 10.0 mi NW 8.1 mph - 0.00 in   Scattered Clouds
8:53 AM 17.1 °F 5.8 °F 8.1 °F 68% 30.23 in 10.0 mi NW 9.2 mph - 0.00 in   Mostly Cloudy
9:53 AM 18.0 °F 4.8 °F 8.1 °F 65% 30.23 in 10.0 mi NNW 12.7 mph 19.6 mph N/A   Partly Cloudy
10:39 AM 19.4 °F 6.6 °F 6.8 °F 58% 30.01 in 10.0 mi NNW 12.7 mph - N/A   Mostly Cloudy
10:53 AM 19.0 °F 5.0 °F 8.1 °F 62% 30.23 in 10.0 mi NNW 15.0 mph 20.7 mph N/A   Mostly Cloudy
11:06 AM 19.4 °F 7.2 °F 6.8 °F 58% 30.01 in 10.0 mi NW 11.5 mph 19.6 mph N/A   Scattered Clouds
11:45 AM 19.4 °F 8.6 °F 10.4 °F 68% 30.01 in 2.5 mi North 9.2 mph - 0.00 in Snow Light Snow
11:53 AM 19.0 °F 8.2 °F 10.9 °F 71% 30.25 in 2.0 mi NNW 9.2 mph - 0.00 in Snow Light Snow
12:00 PM 19.4 °F 7.9 °F 12.2 °F 74% 30.01 in 1.5 mi North 10.4 mph - 0.00 in Snow Light Snow
12:06 PM 19.4 °F 7.9 °F 12.2 °F 74% 30.01 in 3.0 mi NNE 10.4 mph - 0.00 in Snow Light Snow
12:28 PM 21.2 °F 6.8 °F 10.4 °F 63% 30.01 in 10.0 mi North 17.3 mph 29.9 mph 0.00 in   Overcast
12:53 PM 23.0 °F 8.3 °F 3.9 °F 44% 30.23 in 10.0 mi NNW 19.6 mph 27.6 mph 0.00 in   Scattered Clouds
1:53 PM 23.0 °F 8.0 °F 7.0 °F 50% 30.23 in 10.0 mi NNW 20.7 mph 35.7 mph N/A   Mostly Cloudy
2:53 PM 24.1 °F 9.8 °F 1.9 °F 38% 30.21 in 10.0 mi NNW 19.6 mph 28.8 mph N/A   Scattered Clouds
3:29 PM 23.0 °F 9.2 °F 3.2 °F 43% 30.00 in 9.0 mi NNW 17.3 mph 31.1 mph N/A   Mostly Cloudy
3:53 PM 21.0 °F 6.6 °F 10.0 °F 63% 30.23 in 10.0 mi NNE 17.3 mph 25.3 mph N/A   Mostly Cloudy
4:53 PM 18.0 °F 3.6 °F 10.0 °F 71% 30.27 in 4.0 mi North 15.0 mph 24.2 mph 0.00 in Snow Light Snow
5:02 PM 17.6 °F 3.2 °F 10.4 °F 73% 30.02 in 2.5 mi NNE 15.0 mph 23.0 mph 0.00 in Snow Light Snow
5:09 PM 17.6 °F 1.7 °F 10.4 °F 73% 30.02 in 9.0 mi NNE 18.4 mph 23.0 mph 0.00 in   Overcast
5:25 PM 17.6 °F 2.2 °F 10.4 °F 73% 30.03 in 8.0 mi NNE 17.3 mph 25.3 mph 0.00 in   Overcast
5:43 PM 17.6 °F 2.2 °F 8.6 °F 68% 30.04 in 9.0 mi NNE 17.3 mph 24.2 mph 0.00 in   Mostly Cloudy
5:53 PM 17.1 °F 1.0 °F 9.0 °F 71% 30.31 in 9.0 mi North 18.4 mph 24.2 mph 0.00 in   Mostly Cloudy
6:04 PM 15.8 °F -1.1 °F 8.6 °F 73% 30.04 in 9.0 mi NNE 19.6 mph 27.6 mph N/A   Mostly Cloudy
6:16 PM 17.6 °F 5.0 °F 8.6 °F 68% 30.05 in 10.0 mi North 11.5 mph 20.7 mph N/A   Scattered Clouds
6:53 PM 15.1 °F 1.1 °F 9.0 °F 77% 30.33 in 10.0 mi North 12.7 mph 20.7 mph N/A   Scattered Clouds
7:53 PM 15.1 °F -0.1 °F 10.0 °F 80% 30.32 in 6.0 mi North 15.0 mph - N/A   Haze
8:17 PM 14.0 °F -0.8 °F 10.4 °F 86% 30.08 in 2.5 mi North 13.8 mph 20.7 mph 0.00 in Snow Light Snow
8:29 PM 14.0 °F -1.4 °F 8.6 °F 79% 30.08 in 5.0 mi NNE 15.0 mph 21.9 mph 0.00 in   Haze
8:53 PM 14.0 °F 0.5 °F 9.0 °F 80% 30.31 in 4.0 mi North 11.5 mph - 0.00 in Snow Light Snow
8:57 PM 14.0 °F -1.4 °F 8.6 °F 79% 30.09 in 2.5 mi North 15.0 mph 19.6 mph 0.00 in Snow Light Snow
9:08 PM 14.0 °F -1.4 °F 8.6 °F 79% 30.09 in 1.5 mi North 15.0 mph - 0.00 in Snow Light Snow
9:15 PM 14.0 °F -0.2 °F 8.6 °F 79% 30.09 in 3.0 mi North 12.7 mph - 0.00 in Snow Light Snow
9:53 PM 12.9 °F -0.9 °F 8.1 °F 81% 30.33 in 3.0 mi North 11.5 mph 17.3 mph 0.00 in Snow Light Snow
10:22 PM 12.2 °F -0.2 °F 6.8 °F 79% 30.11 in 3.0 mi North 9.2 mph 18.4 mph 0.00 in Snow Light Snow
10:33 PM 12.2 °F -1.8 °F 6.8 °F 79% 30.11 in 7.0 mi North 11.5 mph - 0.00 in   Overcast
10:53 PM 12.0 °F 1.5 °F 7.0 °F 80% 30.34 in 10.0 mi North 6.9 mph - 0.00 in   Overcast
11:53 PM 10.9 °F 1.4 °F 6.1 °F 81% 30.35 in 10.0 mi North 5.8 mph - N/A   Overcast